SFR190 FACT-FAGG

Flight info

Callsign SFR190
Flight time 0h 37m
Altitude 23000
Route DCT OKTED UQ12 XUGOL UQ56 AXEMU DCT
Aircraft B738/M-SDE2E3FGHIRWXY/LB1

Departure

Time 2026-04-21 14:28
Airport Cape Town International Airport (FACT)

Arrival

Time 2026-04-21 15:06
Airport George Airport (FAGG)
Time Latitude Longitude Altitude Speed Heading
2026-04-21 13:14 -33.97226 18.59906 153 ft 0 kts 255°
2026-04-21 13:36 -33.97226 18.59907 153 ft 0 kts 255°
2026-04-21 14:20 -33.97225 18.59908 153 ft 1 kts 255°
2026-04-21 14:20 -33.97220 18.59934 153 ft 4 kts 255°
2026-04-21 14:20 -33.97214 18.59959 153 ft 4 kts 251°
2026-04-21 14:21 -33.97202 18.59982 153 ft 4 kts 194°
2026-04-21 14:21 -33.97179 18.59980 153 ft 4 kts 166°
2026-04-21 14:21 -33.97168 18.59977 153 ft 0 kts 166°
2026-04-21 14:25 -33.97183 18.59981 153 ft 5 kts 166°
2026-04-21 14:25 -33.97245 18.60000 153 ft 12 kts 166°
2026-04-21 14:25 -33.97337 18.60028 153 ft 14 kts 166°
2026-04-21 14:26 -33.97434 18.60061 153 ft 15 kts 164°
2026-04-21 14:26 -33.97529 18.60101 153 ft 15 kts 156°
2026-04-21 14:26 -33.97620 18.60149 153 ft 14 kts 160°
2026-04-21 14:26 -33.97708 18.60190 153 ft 13 kts 146°
2026-04-21 14:27 -33.97739 18.60279 153 ft 12 kts 105°
2026-04-21 14:27 -33.97762 18.60383 153 ft 14 kts 105°
2026-04-21 14:27 -33.97788 18.60498 153 ft 15 kts 105°
2026-04-21 14:27 -33.97787 18.60573 153 ft 7 kts 32°
2026-04-21 14:28 -33.97755 18.60568 153 ft 14 kts 346°
2026-04-21 14:28 -33.97405 18.60455 152 ft 90 kts 345°
2026-04-21 14:28 -33.96575 18.60191 158 ft 154 kts 346°
2026-04-21 14:28 -33.95479 18.59876 758 ft 160 kts 343°
2026-04-21 14:29 -33.94377 18.59555 1512 ft 172 kts 344°
2026-04-21 14:29 -33.93122 18.59222 1909 ft 201 kts 344°
2026-04-21 14:29 -33.91660 18.58844 2201 ft 229 kts 344°
2026-04-21 14:29 -33.90061 18.58432 2572 ft 244 kts 344°
2026-04-21 14:30 -33.88318 18.57973 2857 ft 267 kts 344°
2026-04-21 14:30 -33.86451 18.57822 3665 ft 274 kts 11°
2026-04-21 14:30 -33.84770 18.58910 4645 ft 280 kts 45°
2026-04-21 14:30 -33.83835 18.60939 5532 ft 283 kts 77°
2026-04-21 14:31 -33.83705 18.63313 6330 ft 287 kts 94°
2026-04-21 14:31 -33.83944 18.65717 7066 ft 292 kts 100°
2026-04-21 14:31 -33.84312 18.68152 7809 ft 297 kts 102°
2026-04-21 14:31 -33.84709 18.70607 8609 ft 301 kts 102°
2026-04-21 14:32 -33.84972 18.72245 9135 ft 303 kts 103°
2026-04-21 14:32 -33.85368 18.74754 9912 ft 307 kts 103°
2026-04-21 14:32 -33.85762 18.77311 10514 ft 318 kts 102°
2026-04-21 14:32 -33.86173 18.80038 10694 ft 343 kts 102°
2026-04-21 14:33 -33.86605 18.82955 10916 ft 365 kts 102°
2026-04-21 14:33 -33.87050 18.86013 11393 ft 376 kts 102°
2026-04-21 14:33 -33.87498 18.89136 12084 ft 380 kts 102°
2026-04-21 14:33 -33.87946 18.92296 12866 ft 384 kts 102°
2026-04-21 14:34 -33.88399 18.95500 13573 ft 392 kts 102°
2026-04-21 14:34 -33.88856 18.98743 14367 ft 394 kts 102°
2026-04-21 14:34 -33.89010 18.99846 14607 ft 395 kts 102°
2026-04-21 14:35 -33.90305 19.09076 16411 ft 412 kts 103°
2026-04-21 14:35 -33.90781 19.12488 17082 ft 416 kts 103°
2026-04-21 14:35 -33.91266 19.15968 17605 ft 425 kts 102°
2026-04-21 14:35 -33.91758 19.19499 18252 ft 431 kts 103°
2026-04-21 14:36 -33.92255 19.23086 18855 ft 435 kts 102°
2026-04-21 14:36 -33.92747 19.26646 19400 ft 439 kts 102°
2026-04-21 14:36 -33.93250 19.30290 19942 ft 444 kts 102°
2026-04-21 14:36 -33.93765 19.34028 20446 ft 449 kts 102°
2026-04-21 14:37 -33.94271 19.37713 21014 ft 453 kts 102°
2026-04-21 14:37 -33.94785 19.41464 21602 ft 456 kts 102°
2026-04-21 14:37 -33.95304 19.45256 22070 ft 462 kts 102°
2026-04-21 14:37 -33.95827 19.49092 22473 ft 469 kts 101°
2026-04-21 14:38 -33.96359 19.52998 22722 ft 474 kts 101°
2026-04-21 14:38 -33.96892 19.56925 22993 ft 475 kts 101°
2026-04-21 14:38 -33.97426 19.60873 23091 ft 480 kts 101°
2026-04-21 14:38 -33.97968 19.64880 23100 ft 490 kts 101°
2026-04-21 14:39 -33.98520 19.68970 23093 ft 496 kts 101°
2026-04-21 14:39 -33.99074 19.73087 23075 ft 495 kts 101°
2026-04-21 14:39 -33.99620 19.77167 23085 ft 493 kts 101°
2026-04-21 14:39 -34.00172 19.81247 23074 ft 493 kts 101°
2026-04-21 14:40 -34.00753 19.85317 23076 ft 493 kts 101°
2026-04-21 14:40 -34.01338 19.89387 23070 ft 493 kts 101°
2026-04-21 14:40 -34.01910 19.93461 23071 ft 494 kts 101°
2026-04-21 14:40 -34.02467 19.97535 23083 ft 494 kts 101°
2026-04-21 14:41 -34.02992 20.01466 23078 ft 495 kts 100°
2026-04-21 14:41 -34.03532 20.05577 23077 ft 496 kts 100°
2026-04-21 14:41 -34.04067 20.09687 23069 ft 496 kts 100°
2026-04-21 14:41 -34.04600 20.13801 23077 ft 497 kts 100°
2026-04-21 14:42 -34.05131 20.17920 23087 ft 497 kts 100°
2026-04-21 14:42 -34.05662 20.22043 23078 ft 498 kts 100°
2026-04-21 14:42 -34.06195 20.26179 23068 ft 499 kts 100°
2026-04-21 14:42 -34.06725 20.30307 23069 ft 498 kts 100°
2026-04-21 14:43 -34.07255 20.34439 23066 ft 498 kts 100°
2026-04-21 14:43 -34.07783 20.38561 23070 ft 498 kts 100°
2026-04-21 14:43 -34.08309 20.42687 23067 ft 498 kts 100°
2026-04-21 14:43 -34.08829 20.46775 23063 ft 498 kts 100°
2026-04-21 14:44 -34.09352 20.50900 23064 ft 498 kts 100°
2026-04-21 14:44 -34.09874 20.55026 23062 ft 498 kts 99°
2026-04-21 14:44 -34.10395 20.59160 23064 ft 498 kts 99°
2026-04-21 14:44 -34.10916 20.63300 23063 ft 498 kts 99°
2026-04-21 14:45 -34.11435 20.67438 23062 ft 498 kts 99°
2026-04-21 14:45 -34.11952 20.71571 23065 ft 498 kts 99°
2026-04-21 14:45 -34.12469 20.75717 23056 ft 498 kts 99°
2026-04-21 14:45 -34.12983 20.79848 23056 ft 498 kts 99°
2026-04-21 14:46 -34.13496 20.83986 23051 ft 498 kts 99°
2026-04-21 14:46 -34.14007 20.88122 23056 ft 499 kts 99°
2026-04-21 14:46 -34.14519 20.92273 23059 ft 499 kts 99°
2026-04-21 14:46 -34.15027 20.96408 23052 ft 494 kts 99°
2026-04-21 14:47 -34.15510 21.00357 23071 ft 484 kts 99°
2026-04-21 14:47 -34.15998 21.04351 23055 ft 475 kts 99°
2026-04-21 14:47 -34.16475 21.08262 22633 ft 468 kts 99°
2026-04-21 14:47 -34.16945 21.12124 22368 ft 458 kts 99°
2026-04-21 14:48 -34.17398 21.15857 21765 ft 456 kts 99°
2026-04-21 14:48 -34.17863 21.19695 21228 ft 453 kts 99°
2026-04-21 14:48 -34.18310 21.23393 20708 ft 450 kts 99°
2026-04-21 14:48 -34.18759 21.27120 20185 ft 447 kts 99°
2026-04-21 14:49 -34.19206 21.30839 19668 ft 444 kts 99°
2026-04-21 14:49 -34.19646 21.34517 19145 ft 441 kts 99°
2026-04-21 14:49 -34.20051 21.38164 18632 ft 438 kts 95°
2026-04-21 14:49 -34.20245 21.41818 18079 ft 435 kts 93°
2026-04-21 14:50 -34.20329 21.44243 17699 ft 433 kts 92°
2026-04-21 14:50 -34.20461 21.49068 16986 ft 427 kts 92°
2026-04-21 14:50 -34.20546 21.52636 16491 ft 423 kts 92°
2026-04-21 14:50 -34.20622 21.56185 15960 ft 419 kts 92°
2026-04-21 14:51 -34.20690 21.59681 15457 ft 416 kts 92°
2026-04-21 14:51 -34.20748 21.63163 14955 ft 412 kts 92°
2026-04-21 14:51 -34.20798 21.66610 14486 ft 409 kts 92°
2026-04-21 14:51 -34.20841 21.70028 14002 ft 405 kts 92°
2026-04-21 14:52 -34.20819 21.73418 13479 ft 402 kts 89°
2026-04-21 14:52 -34.20795 21.76777 12987 ft 397 kts 91°
2026-04-21 14:52 -34.20814 21.80096 12493 ft 394 kts 91°
2026-04-21 14:52 -34.20841 21.83383 12044 ft 389 kts 91°
2026-04-21 14:53 -34.20874 21.86641 11578 ft 385 kts 91°
2026-04-21 14:53 -34.20903 21.89841 11113 ft 375 kts 91°
2026-04-21 14:53 -34.20926 21.92925 10847 ft 357 kts 91°
2026-04-21 14:53 -34.20941 21.95848 10705 ft 341 kts 91°
2026-04-21 14:54 -34.20951 21.98676 10581 ft 334 kts 91°
2026-04-21 14:54 -34.20959 22.01384 10454 ft 326 kts 91°
2026-04-21 14:54 -34.20967 22.04105 10338 ft 323 kts 91°
2026-04-21 14:54 -34.20979 22.06817 10213 ft 325 kts 91°
2026-04-21 14:55 -34.20997 22.09562 10093 ft 329 kts 91°
2026-04-21 14:55 -34.21021 22.12331 9911 ft 330 kts 91°
2026-04-21 14:55 -34.21048 22.15124 9595 ft 334 kts 91°
2026-04-21 14:55 -34.21073 22.17925 9314 ft 331 kts 91°
2026-04-21 14:56 -34.21095 22.20694 9057 ft 327 kts 91°
2026-04-21 14:56 -34.21118 22.23422 8791 ft 323 kts 91°
2026-04-21 14:56 -34.21141 22.26085 8553 ft 319 kts 91°
2026-04-21 14:56 -34.21163 22.28762 8314 ft 317 kts 91°
2026-04-21 14:57 -34.21184 22.31418 8035 ft 312 kts 91°
2026-04-21 14:57 -34.21202 22.33976 7918 ft 297 kts 91°
2026-04-21 14:57 -34.21219 22.36412 7768 ft 285 kts 91°
2026-04-21 14:57 -34.21237 22.38793 7412 ft 283 kts 91°
2026-04-21 14:58 -34.21256 22.41173 7018 ft 283 kts 91°
2026-04-21 14:58 -34.21273 22.43543 6668 ft 281 kts 91°
2026-04-21 14:58 -34.21288 22.45884 6357 ft 277 kts 91°
2026-04-21 14:58 -34.21131 22.48201 5895 ft 278 kts 70°
2026-04-21 14:59 -34.20593 22.49577 5641 ft 272 kts 49°
2026-04-21 14:59 -34.19221 22.51041 5259 ft 256 kts 18°
2026-04-21 14:59 -34.17605 22.51865 4907 ft 250 kts 12°
2026-04-21 14:59 -34.15970 22.52607 4472 ft 251 kts 12°
2026-04-21 15:00 -34.14348 22.53331 4125 ft 248 kts 11°
2026-04-21 15:00 -34.12722 22.54058 3707 ft 250 kts 11°
2026-04-21 15:00 -34.11100 22.54777 3382 ft 247 kts 12°
2026-04-21 15:00 -34.09498 22.55433 3115 ft 242 kts 12°
2026-04-21 15:01 -34.07893 22.56067 3025 ft 240 kts 11°
2026-04-21 15:01 -34.06319 22.56683 3011 ft 238 kts 12°
2026-04-21 15:01 -34.04767 22.57272 3016 ft 226 kts
2026-04-21 15:01 -34.03326 22.57281 2993 ft 191 kts 332°
2026-04-21 15:02 -34.02223 22.56021 3017 ft 154 kts 290°
2026-04-21 15:02 -34.01916 22.55245 3011 ft 155 kts 291°
2026-04-21 15:02 -34.01438 22.54083 2973 ft 155 kts 291°
2026-04-21 15:02 -34.00944 22.52913 3045 ft 159 kts 292°
2026-04-21 15:03 -34.00437 22.51713 2958 ft 157 kts 290°
2026-04-21 15:03 -34.00236 22.50484 2634 ft 150 kts 266°
2026-04-21 15:03 -34.00226 22.49238 2364 ft 150 kts 269°
2026-04-21 15:03 -34.00238 22.47977 2170 ft 150 kts 266°
2026-04-21 15:04 -34.00271 22.46779 1961 ft 137 kts 265°
2026-04-21 15:04 -34.00306 22.45660 1797 ft 131 kts 265°
2026-04-21 15:04 -34.00344 22.44558 1595 ft 130 kts 267°
2026-04-21 15:04 -34.00374 22.43492 1425 ft 126 kts 266°
2026-04-21 15:05 -34.00400 22.42445 1240 ft 125 kts 266°
2026-04-21 15:05 -34.00465 22.40346 979 ft 127 kts 261°
2026-04-21 15:05 -34.00508 22.39290 752 ft 125 kts 261°
2026-04-21 15:06 -34.00538 22.38243 651 ft 119 kts 264°
2026-04-21 15:06 -34.00564 22.37496 660 ft 59 kts 269°
2026-04-21 15:06 -34.00576 22.37134 657 ft 30 kts 267°
2026-04-21 15:06 -34.00584 22.36897 652 ft 25 kts 268°
2026-04-21 15:07 -34.00569 22.36793 651 ft 10 kts 324°
2026-04-21 15:07 -34.00504 22.36793 651 ft 10 kts 29°
2026-04-21 15:07 -34.00452 22.36847 649 ft 10 kts 42°
2026-04-21 15:07 -34.00395 22.36922 646 ft 14 kts 57°
2026-04-21 15:08 -34.00367 22.37044 643 ft 15 kts 86°
2026-04-21 15:08 -34.00362 22.37169 646 ft 15 kts 87°
2026-04-21 15:08 -34.00358 22.37287 647 ft 14 kts 88°
2026-04-21 15:08 -34.00355 22.37414 643 ft 18 kts 88°
2026-04-21 15:09 -34.00348 22.37585 640 ft 23 kts 87°
2026-04-21 15:09 -34.00343 22.37774 640 ft 23 kts 88°
2026-04-21 15:09 -34.00337 22.37958 648 ft 18 kts 88°
2026-04-21 15:09 -34.00335 22.38062 648 ft 8 kts 88°
2026-04-21 15:10 -34.00284 22.38096 643 ft 12 kts 353°
2026-04-21 15:10 -34.00233 22.38078 641 ft 4 kts 26°
2026-04-21 15:10 -34.00209 22.38114 639 ft 4 kts 55°
2026-04-21 15:10 -34.00205 22.38122 638 ft 1 kts 56°
2026-04-21 15:11 -34.00203 22.38124 638 ft 0 kts 56°
2026-04-21 15:12 -34.00204 22.38124 638 ft 0 kts 56°